Regional Weather Roundup
Issued by NWS

Home | Current Version | Previous Version | Graphics & Text | Print | Product List | Glossary On
Versions: 1 2 3 4 5 6 7 8 9 10 11 12 13 14 15 16 17 18 19 20 21 22 23 24 25 26 27 28 29 30 31 32 33 34 35 36 37 38 39 40 41 42 43 44 45 46 47 48 49 50
000
ASUS43 KOAX 020310
RWRNE

WEATHER ROUNDUP FOR NEBRASKA
NATIONAL WEATHER SERVICE OMAHA NE
1000 PM CDT TUE SEP 01 2015

NOTES: SATELLITE DATA IS BEING USED TO AUGMENT CLOUD COVER ABOVE
       12000 FEET.
       "FAIR" INDICATES FEW OR NO CLOUDS BELOW 12,000 FEET WITH NO
       SIGNIFICANT WEATHER AND/OR OBSTRUCTIONS TO VISIBILITY.

  * THESE STATIONS DO NOT REPORT WEATHER SUCH AS RAIN...SNOW OR FOG.

NEZ001>004-019>022-054>056-020400-
NEBRASKA PANHANDLE

CITY           SKY/WX    TMP DP  RH WIND       PRES   REMARKS
SCOTTSBLUFF    PTCLDY    68  55  63 E6        29.93R
ALLIANCE       CLEAR     70  45  40 S9        29.93R
CHADRON        CLEAR     69  44  40 E3        29.86R
KIMBALL        PTCLDY    65  43  44 SW3       30.00R
SIDNEY         CLEAR     72  44  36 S12       29.99R
$$

NEZ057>060-069>072-079>082-020400-
SOUTHWEST NEBRASKA

CITY           SKY/WX    TMP DP  RH WIND       PRES   REMARKS
NORTH PLATTE   CLEAR     69  66  90 E7        29.91R
IMPERIAL       CLEAR     71  56  58 SE7       29.94R
LEXINGTON      CLEAR     72  66  80 SE5       29.91R
MCCOOK         PTCLDY    78  61  55 SE5       29.92R
OGALLALA       CLEAR     75  51  43 SE3       29.93R
$$

NEZ005>010-023>029-035>040-094-020400-
NORTH CENTRAL NEBRASKA

CITY           SKY/WX    TMP DP  RH WIND       PRES   REMARKS
VALENTINE      CLEAR     75  60  59 E5        29.86R
AINSWORTH      CLEAR     73  62  68 S7        29.88R
BROKEN BOW     CLEAR     73  65  75 SE3       29.90R
O`NEILL        CLEAR     76  67  72 SE7       29.88R
ORD            CLEAR     74  64  71 CALM      29.88R
THEDFORD       CLEAR     78  64  63 S10       29.91R
$$

NEZ041-046>049-061>064-073>077-083>087-020400-
SOUTH CENTRAL NEBRASKA

CITY           SKY/WX    TMP DP  RH WIND       PRES   REMARKS
GRAND ISLAND   CLEAR     78  66  66 S9        29.90R
AURORA         CLEAR     77  66  67 S7        29.90R
HASTINGS       PTCLDY    81  64  56 SE9       29.90R
HEBRON         PTCLDY    82  61  48 S17G25    29.91R
HOLDREGE       CLEAR     74  64  69 SE7       29.91R
KEARNEY *      CLEAR     73  63  68 E7        29.91R
YORK           CLEAR     77  66  69 S9        29.90R
$$

NEZ011>018-030>034-042>045-020400-
NORTHEAST NEBRASKA

CITY           SKY/WX    TMP DP  RH WIND       PRES   REMARKS
NORFOLK        CLEAR     75  67  76 SE7       29.89R
ALBION         CLEAR     74  67  79 SE5       29.89R
BLAIR          PTCLDY    79  66  63 S13       29.92R
COLUMBUS *     CLEAR     77  63  61 S8        29.88R
FREMONT        CLEAR     79  65  63 SE12G18   29.90R
TEKAMAH        CLEAR     76  70  82 SE10      29.89R
WAYNE          CLEAR     73  69  87 S6        29.89R
$$

NEZ050>053-065>068-078-088>093-020400-
SOUTHEAST NEBRASKA

CITY           SKY/WX    TMP DP  RH WIND       PRES   REMARKS
LINCOLN        MOCLDY    81  65  58 S17G25    29.90R
OMAHA EPPLEY   CLOUDY    80  68  66 SE14      29.91R
BEATRICE       CLOUDY    81  65  59 S15G22    29.92R
FALLS CITY     PTCLDY    78  68  71 S10       29.96R
NEBRASKA CITY  CLOUDY    79  61  53 S15       29.95R
PLATTSMOUTH    MOCLDY    78  65  62 SE12      29.93R
$$

NEZ044-045-051>053-067-020400-
OMAHA AREA

CITY           SKY/WX    TMP DP  RH WIND       PRES   REMARKS
OMAHA EPPLEY   CLOUDY    80  68  66 SE14      29.91R
BLAIR          PTCLDY    79  66  63 S13       29.92R
FREMONT        CLEAR     79  65  63 SE12G18   29.90R
MILLARD        PTCLDY    80  69  70 SE9       29.91R
OFFUTT AFB     PTCLDY    80  67  66 SE14      29.92R
PLATTSMOUTH    MOCLDY    78  65  62 SE12      29.93R
WAHOO          FAIR      74  67  79 SE9       29.90R
$$



USA.gov is the U.S. government's official web portal to all federal, state and local government web resources and services.